Location: Malboisset
(44.4500°N, 6.8500°E)
Time: 21:08:11
(UTC+00:00)

Daily predictions for brighter satellites

Satellite Brightness Start Highest point End
(mag) Time Altitude Azimuth Time Altitude Azimuth Time Altitude Azimuth
Cosmos 1758 Rocket 4.3 19:49:43 10° SSE 19:53:49 36° E 19:57:57 10° NNE
Cosmos 1626 Rocket 3.8 19:50:19 10° S 19:54:46 81° W 19:59:16 10° N
Cosmos 1455 2.6 19:52:31 10° N 19:56:15 46° ENE 19:59:57 10° SSE
USA 245 4.4 19:55:22 10° SE 19:58:19 28° ENE 20:01:56 10° N
COSMOS 2428 3.7 20:04:05 10° SSE 20:08:37 25° ESE 20:13:10 10° NE
Cosmos 1703 3.6 20:06:20 10° SSE 20:10:01 45° E 20:13:44 10° NNE
Cosmos 1844 4.1 20:04:54 10° NNW 20:10:35 54° ENE 20:16:01 11° SE
Resurs 1-3 4.3 20:06:27 10° S 20:10:44 54° W 20:15:04 10° NNW
Cosmos 2322 4.1 20:05:49 10° S 20:11:12 44° ESE 20:16:37 10° NE
Cosmos 1745 Rocket 4.0 20:05:26 10° S 20:11:36 79° E 20:17:53 10° N
MetOp-B 4.2 20:07:33 10° SSE 20:12:51 67° ENE 20:18:10 10° N
SL-08 ROCKET BODY 4.4 20:07:33 10° S 20:13:29 82° E 20:19:34 10° N
Cosmos 2263 Rocket 4.1 20:11:25 10° NW 20:15:53 25° WSW 20:20:21 10° SSW
Cosmos 1953 Rocket 4.3 20:13:14 10° SSE 20:17:06 33° E 20:21:01 10° NNE
Cosmos 773 Rocket 4.4 20:12:32 10° S 20:17:30 43° ESE 20:22:30 10° NNE
Cosmos 2237 Rocket 4.0 20:18:07 10° ESE 20:19:57 12° E 20:21:47 10° ENE
Cosmos 2219 Rocket 2.8 20:15:21 10° SSE 20:20:20 35° ESE 20:25:21 10° NE
ERS-1 Rocket 3.9 20:16:48 11° SE 20:21:06 34° ENE 20:25:36 10° N
ATLAS CENTAUR R/B 2.8 20:18:34 10° NNW 20:21:37 24° NE 20:24:37 10° E
Cosmos 1818 3.7 20:16:26 10° SW 20:21:52 83° NW 20:27:21 10° NNE
Cosmos 2360 Rocket 2.3 20:17:10 10° SSW 20:22:48 83° WNW 20:28:30 10° NNE
Cosmos 2333 4.4 20:17:36 10° S 20:23:03 53° ESE 20:28:35 10° NE
USA 215 3.7 20:18:40 10° ENE 20:24:43 38° SE 20:30:42 10° SSW
SPOT 5 3.9 20:23:12 12° SE 20:27:12 32° ENE 20:31:27 10° N
Landsat 7 3.9 20:26:08 11° SSE 20:30:36 68° ENE 20:35:21 10° N
Atlas Centaur 2 3.6 20:26:29 10° SW 20:30:52 22° S 20:34:39 14° SE
Cosmos 1825 Rocket 3.5 20:27:38 10° S 20:32:04 75° E 20:36:32 10° NNE
Cosmos 2333 Rocket 2.5 20:28:40 10° S 20:34:05 49° ESE 20:39:36 10° NE
CZ-2C R/B 4.4 20:31:12 10° N 20:36:03 34° WNW 20:40:47 10° SW
GEOS 3 Rocket 3.7 20:35:06 10° NE 20:40:30 68° SE 20:45:51 10° SSW
SL-16 R/B 4.4 20:38:36 10° WSW 20:43:28 29° NW 20:48:23 10° N
Spot 2 Rocket 3.6 20:39:25 12° SSE 20:44:12 84° WSW 20:49:21 10° NNW
IGS 5A 3.5 20:42:27 14° S 20:46:02 82° WSW 20:50:13 10° NNW
Cosmos 1315 Rocket 3.6 20:43:32 10° N 20:47:24 38° ENE 20:49:47 20° SE
OAO 2 Rocket 4.3 20:46:22 10° WSW 20:50:56 30° S 20:53:38 19° SE
ATLAS 5 CENTAUR R/B 2.5 20:47:31 10° WSW 20:51:33 49° NW 20:56:05 10° NNE
CARTOSAT-1 3.7 20:49:41 19° SSE 20:52:35 59° ENE 20:56:51 10° N
USA 81 4.2 20:48:48 14° SSE 20:53:10 59° E 20:58:22 10° NNE
Cosmos 2278 Rocket 3.3 20:49:40 10° N 20:54:49 34° NE 20:58:50 15° ESE
Cosmos 1709 Rocket 4.1 20:50:15 10° S 20:56:33 85° W 21:02:57 10° N
USA 267 4.2 20:50:56 10° E 20:57:02 43° NNE 21:03:10 10° NW
Cosmos 1844 Rocket 3.2 20:51:39 10° NNW 20:57:06 55° WSW 21:01:37 15° S
Meteor 1-11 4.2 20:57:21 10° S 21:02:58 88° E 21:08:42 10° N
SPOT 1/Viking Rocket 3.7 21:00:43 16° S 21:04:53 72° WSW 21:10:04 10° NNW
Cosmos-2242 4.0 21:04:02 10° NNW 21:08:11 45° W 21:11:57 12° SSW
Cosmos 1400 Rocket 3.9 21:05:11 10° NNW 21:08:54 39° W 21:12:01 13° SSW
BREEZE-M R/B 4.4 20:57:12 10° WNW 21:09:01 79° SSW 21:12:48 22° SE
Cosmos 2184 Rocket 4.3 21:08:51 21° SSE 21:12:54 50° E 21:18:56 10° NNE
Cosmos 2221 3.1 21:09:08 10° N 21:13:19 43° ENE 21:15:14 27° SE
Resurs 01 Rocket 4.0 21:11:30 10° SW 21:14:34 18° W 21:17:39 10° NW
Lacrosse 5 rocket 4.2 21:12:19 10° NW 21:14:36 14° N 21:16:48 10° NNE
Terra 1.9 21:14:58 26° SSE 21:17:38 68° ENE 21:22:22 10° N
Cosmos 923 Rocket 4.4 21:16:24 24° SSE 21:19:01 42° ESE 21:23:59 10° NNE
SAR-Lupe-2 4.4 21:16:12 10° N 21:19:41 50° WNW 21:22:58 11° SSW
TSX-5 4.4 21:25:02 10° NNW 21:28:27 45° ENE 21:30:04 29° ESE
Cosmos 2058 3.5 21:27:38 32° SE 21:28:46 40° E 21:32:39 10° NNE
NOSS 3-4 (A) 4.4 21:23:36 10° NNW 21:30:19 50° NE 21:36:03 17° ESE
NOSS 3-4 (C) 4.4 21:23:43 10° NNW 21:30:26 50° NE 21:36:11 17° ESE
NOSS 3-3 (A) 4.2 21:32:51 10° SW 21:38:41 69° NW 21:45:18 10° NE
NOSS 3-3 (C) 4.2 21:32:57 10° SW 21:38:47 70° NW 21:45:25 10° NE
Cosmos 1825 3.7 21:39:57 21° E 21:39:59 21° E 21:42:53 10° NE
Cosmos 1980 3.7 21:41:49 25° S 21:45:03 63° ESE 21:50:38 10° NNE
Meteor 2-17 Rocket 4.4 21:43:29 26° S 21:47:01 77° E 21:53:05 10° NNE
JB-3 4.1 21:43:10 10° NNE 21:47:01 75° ESE 21:48:04 46° S
Cosmos 1076 Rocket 3.6 21:47:32 42° SSE 21:48:44 60° E 21:52:58 10° NNE
Nadezhda 3 Rocket 4.1 21:45:56 10° N 21:52:17 64° E 21:55:18 32° SSE
COSMOS 2428 3.5 21:47:01 10° SW 21:52:32 51° WNW 21:58:05 10° NNE
Cosmos 2154 Rocket 4.0 21:49:47 30° SSE 21:52:53 66° E 21:59:03 10° NNE
Cosmos 2084 4.0 21:50:35 10° NW 21:54:52 47° WSW 21:56:03 37° SSW
Cosmos 2151 4.0 21:55:43 30° ESE 21:56:11 31° E 21:59:57 10° NNE
DELTA 2 R/B (1) 3.8 21:53:00 10° WSW 21:58:19 46° SSE 22:01:15 25° ESE
ATLAS 2AS CENTAUR R/B 3.1 21:50:49 10° NW 21:58:23 65° NE 22:02:39 25° ESE
Cosmos 2074 Rocket 4.1 21:54:31 21° SSW 21:58:52 73° W 22:05:07 10° N
ERS-1 Rocket 4.3 21:56:48 17° SSW 21:59:52 32° W 22:04:22 10° NNW
Thor Agena Rocket 3.9 21:55:14 10° NNE 22:00:10 47° E 22:01:29 38° SE
ATLAS CENTAUR R/B 2.1 21:57:14 10° NW 22:00:32 32° WSW 22:00:56 31° SW
Cosmos 1869 3.8 21:57:26 10° NNW 22:01:21 54° W 22:02:34 38° SSW
Genesis I 3.1 22:00:58 58° S 22:01:31 68° ESE 22:05:24 10° NE
BREEZE-M DEB (TANK) 3.0 21:57:38 10° WNW 22:02:01 39° N 22:03:24 21° ENE
Cosmos 2237 Rocket 2.1 21:59:39 25° SSW 22:03:02 82° ESE 22:08:47 10° NNE
Cosmos 2219 Rocket 3.5 21:59:03 10° WSW 22:04:13 38° NW 22:09:27 10° NNE
Cosmos 1842 Rocket 4.4 22:00:45 10° NNW 22:04:52 43° W 22:06:34 28° SW
SPOT 5 4.2 22:02:26 19° SSW 22:05:13 32° W 22:09:32 10° NNW
Cosmos 1371 Rocket 4.3 22:01:39 10° NNW 22:06:53 59° ENE 22:08:51 36° SE
USA 215 3.5 22:01:27 10° NE 22:07:59 70° NW 22:14:28 10° WSW
Spot 4 4.2 22:06:50 38° SE 22:08:20 54° ENE 22:13:00 10° N
Cosmos 2344 3.5 22:05:03 21° SSW 22:10:12 63° ESE 22:17:56 10° NE
Cosmos 158 Rocket 3.7 22:09:32 37° SSW 22:11:28 86° ESE 22:16:23 10° NNE
Gblst 52 Del rocket 4.4 22:09:01 10° WNW 22:14:46 64° SW 22:17:16 37° SSE
Cosmos 1151 Rocket 4.4 22:11:14 10° NNE 22:14:54 26° ENE 22:15:44 24° E
Cosmos 2112 Rocket 4.0 22:12:33 34° SSW 22:14:56 85° ESE 22:20:20 10° NNE
Elektron 1 4.4 22:15:07 35° WSW 22:16:21 71° NW 22:21:20 10° NE
Cosmos 2333 Rocket 4.0 22:13:40 10° WSW 22:18:36 29° NW 22:23:35 10° N
Atlas Centaur 2 4.2 22:14:57 10° SW 22:17:13 16° SW 22:17:13 16° SW
ALOS 2 3.6 22:18:57 30° E 22:20:01 34° ENE 22:24:00 10° N
Iridium 2 3.5 22:21:39 10° N 22:25:29 85° W 22:25:48 74° SSW
Cosmos 1892 3.8 22:26:26 30° WSW 22:27:33 38° WNW 22:31:08 10° N
NOSS 0 Rocket 4.5 22:22:19 10° SW 22:28:20 56° WNW 22:34:25 10° NNE
EO 1 Del DPAF 3.0 22:26:00 10° NNE 22:29:46 81° E 22:29:55 79° SE
Cosmos 2056 Rocket 3.5 22:25:18 10° NNW 22:30:45 81° ENE 22:32:26 46° SSE
Cosmos 1295 Rocket 4.4 22:29:34 34° SSW 22:32:23 81° W 22:38:32 10° N
GP-B 3.7 22:28:21 10° NNE 22:32:36 42° E 22:33:05 40° ESE
Cosmos 1606 3.1 22:33:29 10° N 22:37:17 50° ENE 22:37:25 50° E
Cosmos 1408 3.3 22:37:57 42° W 22:38:20 44° WNW 22:41:47 10° N
Cosmos 2278 Rocket 3.0 22:33:42 10° NW 22:38:57 40° WSW 22:40:40 32° SW
USA 267 3.2 22:36:39 34° SE 22:39:46 79° SW 22:46:22 10° NW
Cosmos 962 Rocket 4.5 22:37:12 38° S 22:39:51 89° W 22:46:16 10° N
Cosmos 44 2.8 22:40:50 68° SSE 22:41:04 70° ESE 22:45:28 10° NE
Cosmos 2297 3.9 22:36:04 10° NNW 22:41:48 65° ENE 22:43:52 39° SE
Gbstr 26 Del rocket 4.4 22:44:19 23° E 22:44:19 23° E 22:46:04 10° ENE
Cosmos 1943 Rocket 3.4 22:37:17 10° N 22:42:26 34° NE 22:45:29 21° ESE
Cosmos 1680 Rocket 4.3 22:39:45 21° SW 22:43:06 49° WNW 22:48:16 10° N
MOS 1-B Rocket 4.3 22:35:46 10° NNE 22:43:26 88° WNW 22:46:38 34° SSW
SL-16 R/B 2.1 22:46:34 48° S 22:48:08 70° ESE 22:53:47 10° NNE
Cosmos 371 Rocket 3.7 22:45:24 10° NNW 22:50:11 55° ENE 22:51:21 43° ESE
IRIDIUM 104 4.4 22:49:58 50° SE 22:51:07 64° E 22:56:18 10° N
CREW DRAGON DEMO-1 DEB 4.1 22:53:16 41° NNW 22:53:16 41° NNW 22:56:12 10° NE
Lacrosse 5 rocket 3.7 22:51:57 10° NNW 22:55:03 21° NNE 22:58:01 10° ENE
Terra 4.1 22:53:51 11° WSW 22:55:50 14° W 22:58:20 10° WNW
Cosmos 1452 Rocket 4.0 22:52:31 10° NNW 22:57:40 50° ENE 22:59:20 37° ESE
Cosmos 1515 Rocket 4.2 22:55:27 10° N 22:59:37 43° ENE 23:00:08 41° E
IRIDIUM 114 4.3 22:59:06 55° SSE 23:00:16 78° E 23:05:30 10° N
Cosmos 1766 Rocket 3.5 23:01:32 67° SW 23:02:03 79° W 23:06:29 10° N
Cosmos 1328 Rocket 3.3 23:01:28 10° N 23:05:48 85° E 23:06:06 76° SSE
Okean 3 Rocket 3.9 23:07:35 50° WSW 23:08:20 58° W 23:12:43 10° N
IRIDIUM 103 4.2 23:08:14 56° S 23:09:24 88° W 23:14:39 10° N
Meteor 2-3 Rocket 3.7 23:12:54 52° S 23:14:19 77° E 23:20:02 10° NNE
Cosmos 1340 2.7 23:15:33 76° N 23:15:33 76° N 23:19:04 10° N
Cosmos 1825 3.8 23:14:45 25° W 23:15:20 26° WNW 23:18:36 10° NNW
Cosmos 864 Rocket 4.4 23:16:18 46° S 23:18:22 88° W 23:24:43 10° N
Cosmos 2218 Rocket 4.0 23:17:43 43° SSW 23:19:58 79° W 23:26:19 10° N
Cosmos 2228 Rocket 4.0 23:16:18 10° N 23:20:38 40° ENE 23:21:26 37° ESE
NOSS 3-4 (A) 4.4 23:14:36 10° NW 23:21:18 44° WSW 23:23:28 36° SSW
NOSS 3-4 (C) 4.4 23:14:43 10° NW 23:21:25 45° WSW 23:23:36 36° SSW
Aureole 2 Rocket 4.3 23:19:39 10° NW 23:20:49 19° WNW 23:20:49 19° WNW
Cosmos 1603 4.4 23:22:36 36° ESE 23:23:20 37° ESE 23:28:33 10° NE
Cosmos 2366 rocket 4.0 23:21:57 43° SSW 23:24:12 78° W 23:30:35 10° N
Meteor 1-26 Rocket 4.3 23:20:42 10° N 23:26:44 87° W 23:28:23 50° S
Cosmos 1743 Rocket 3.6 23:29:40 61° ESE 23:29:48 62° E 23:34:06 10° NNE
Cosmos 2369 Rocket 2.7 23:25:28 10° NNW 23:30:58 54° ENE 23:33:18 32° ESE
Cosmos 44 Rocket 4.4 23:32:07 29° ESE 23:32:07 29° ESE 23:35:44 10° NE
CZ-4 R/B 4.4 23:27:33 10° NNE 23:32:01 41° E 23:32:25 40° ESE
Cosmos 1821 Rocket 4.3 23:30:58 40° SE 23:32:45 52° E 23:38:38 10° NNE
YAOGAN 11 4.0 23:33:15 68° SE 23:33:41 75° ENE 23:38:07 10° N
Cosmos 304 Rocket 3.9 23:29:14 10° NNW 23:34:04 68° ENE 23:35:00 54° SE
Helios 1A 2.8 23:34:08 84° SW 23:34:13 85° WSW 23:38:23 10° NNW
Cosmos 1933 4.0 23:31:51 10° NNW 23:35:34 42° W 23:35:34 42° W
COSMOS 2455 2.8 23:33:41 10° NNW 23:39:47 89° ENE 23:41:47 45° SSE
Cosmos 2237 Rocket 4.5 23:43:46 10° W 23:47:50 20° NW 23:51:55 10° N
ATLAS 2AS CENTAUR R/B 3.7 23:42:35 10° NW 23:48:47 30° WSW 23:50:03 28° SW
Cosmos 1812 3.9 23:47:33 10° N 23:51:05 33° ENE 23:51:25 33° E
Cosmos 1151 Rocket 4.3 23:48:42 10° NNW 23:52:25 28° W 23:52:34 28° W
Cosmos 1408 Rocket 4.4 23:52:07 36° W 23:52:46 38° WNW 23:56:54 10° N
CRYOSAT 2 4.4 23:48:08 10° N 23:52:58 64° E 23:53:46 55° SE
Cosmos 1782 2.9 23:49:21 10° NNW 23:53:04 64° WNW 23:53:04 64° WNW
CZ-2D R/B 4.2 23:52:15 10° NE 23:55:23 16° E 23:57:20 13° ESE
Cosmos 1346 Rocket 3.3 23:55:57 47° W 23:56:00 47° WNW 23:59:49 10° N
ALOS 2 4.1 23:56:20 24° W 23:56:24 24° W 23:59:58 10° NW
